Regional Weather Roundup
Issued by NWS

Home | Current Version | Previous Version | Text Only | Print | Product List | Glossary On
Versions: 1 2 3 4 5 6 7 8 9 10 11 12 13 14 15 16 17 18 19 20 21 22 23 24 25 26 27 28
000
ASUS45 KBOU 240507
RWRCO

WEATHER ROUNDUP FOR COLORADO
NATIONAL WEATHER SERVICE DENVER/BOULDER CO
1100 PM MDT SUN JUL 23 2017

NOTE: "FAIR" INDICATES FEW OR NO CLOUDS BELOW 12000 FEET WITH NO
SIGNIFICANT WEATHER AND/OR OBSTRUCTIONS TO VISIBILITY.

COZ001>005-013-030-031-240600-
...NORTHWEST COLORADO...

CITY           SKY/WX    TMP DP  RH WIND       PRES   REMARKS
CRAIG          FAIR      58  45  62 SE5       30.15R
HAYDEN         FAIR     N/A N/A N/A E6        30.18R
MEEKER         FAIR      61  41  47 NE6       30.18R
RABBIT EARS PA FAIR      55  37  50 CALM      30.53S
STEAMBOAT SPGS FAIR      69  40  35 E6        30.21R
WALDEN         FAIR      61  39  44 SE5       30.34S
$$

COZ006>008-011-240600-
...WEST CENTRAL VALLEYS...

CITY           SKY/WX    TMP DP  RH WIND       PRES   REMARKS
GRAND JUNCTION FAIR      80  48  32 SE18      30.07R
MONTROSE       FAIR      74  46  36 SE12G29   30.20R
EAGLE          FAIR      73  45  36 N5        30.24R
RIFLE          FAIR      77  46  33 E12       30.13R
DELTA          FAIR      73  47  39 CALM      30.15R
NUCLA          FAIR      70  45  40 E7        30.22R
$$

COZ017>023-064>068-240600-
...SOUTHWEST COLORADO...

CITY           SKY/WX    TMP DP  RH WIND       PRES   REMARKS
DURANGO        CLOUDY    66  52  60 CALM      30.26R
CORTEZ         LGT RAIN  67  57  70 S21       30.18F
PAGOSA SPRINGS CLOUDY    65  48  54 NE3       30.36R
TELLURIDE      FAIR      58  46  64 S3        30.46S
WOLF CREEK PAS CLOUDY    50  41  71 CALM      30.72S
$$

COZ009-010-012-014-032>034-037-058>063-240600-
...CENTRAL COLORADO...

CITY           SKY/WX    TMP DP  RH WIND       PRES   REMARKS
ASPEN          FAIR      67  42  40 SE10      30.33S
BUENA VISTA    FAIR      60  49  67 SW3       30.40S
COPPER MTN     FAIR      54  39  58 S18       30.68R
BERTHOUD PASS  FAIR      45  32  61 W14       30.70S
COTTONWOOD PAS FAIR      61  37  41 SW5       30.54S
GUNNISON       FAIR      60  52  74 W3        30.41R
KREMMLING      FAIR      73  45  35 S7        30.31S
LEADVILLE      FAIR      52  44  74 CALM      30.51F
MONARCH PASS   FAIR      48  39  71 SW6       30.80S
SALIDA         FAIR      64  51  62 N3        30.45S
SUNLIGHT       FAIR      52  36  54 E6        30.60R
WILKERSON PASS FAIR      48  41  76 SW13G18   30.66F
$$

COZ069>075-240600-
...SAN LUIS VALLEY/SANGRE DE CRISTO MOUNTAINS...

CITY           SKY/WX    TMP DP  RH WIND       PRES   REMARKS
ALAMOSA        FAIR      59  52  77 SE7       30.33S
DEL NORTE      FAIR      61  46  56 W5        30.38S
LA VETA PASS   NOT AVBL
SAGUACHE         N/A    N/A N/A N/A MISG        N/A
$$

COZ035-036-038>040-240600-
...NORTHERN COLORADO FRONT RANGE...

CITY           SKY/WX    TMP DP  RH WIND       PRES   REMARKS
DENVER INTL AP FAIR      73  51  46 S15       30.15R
DMNS CITY PARK   N/A     77  49  36 SE8G23    30.13S
AURORA         PTCLDY    74  54  49 S16G25    30.17S
FRONT RANGE AP FAIR      75  54  46 S15G21    30.17S
ERIE MUNI ARPT FAIR      78  42  28 S9        30.10S
BOULDER MUN AP FAIR      73  45  35 SE8       30.11S
CENTENNIAL     FAIR      73  52  47 S16       30.19S
BROOMFIELD     FAIR      75  45  33 S12       30.15S
FORT COLLINS   FAIR      71  50  47 SE7       30.10R
LONGMONT       FAIR      66  53  62 SE3       30.11S
$$

COZ041-046-047-076>085-087-088-240600-
...PIKES PEAK/PALMER DIVIDE AND SOUTHERN FOOTHILLS...

CITY           SKY/WX    TMP DP  RH WIND       PRES   REMARKS
COLO. SPRINGS  FAIR      70  55  59 S9        30.28R
A. F. ACADEMY  FAIR      68  52  57 S10       30.28S
SCHRIEVER AFB  FAIR      66  52  61 SE10      30.28R
CHEYENNE MTN   FAIR      69  51  53 S15       30.27S
ELLICOTT       FAIR     N/A N/A N/A SE10      30.25S
FALCON           N/A     64  52  65 S12       30.33R
FORT CARSON    MOCLDY    73  53  49 W3        30.24R
LIMON          FAIR      63  54  72 S7        30.21R
MONUMENT HILL  FAIR      63  52  67 S16       30.32S
CANON CITY     CLEAR     73  57  56 N9        30.20S
WALSENBURG     FAIR      64  54  68 CALM      30.25R
TRINIDAD       FAIR      69  53  56 W12       30.24R
$$

COZ042>045-048>051-090-091-240600-
...NORTHEAST COLORADO...

CITY           SKY/WX    TMP DP  RH WIND       PRES   REMARKS
GREELEY ARPT   FAIR      76  53  44 S15       30.09S
AKRON          FAIR      72  54  53 S16       30.13R
BURLINGTON     FAIR      68  57  68 S8        30.14R
WRAY           NOT AVBL
YUMA           FAIR      68  48  49 S9        30.10R
STERLING       FAIR      73  54  49 S9        30.06S
HOLYOKE        FAIR      68  55  64 S7        30.07S
FORT MORGAN    FAIR      72  49  43 SE9       30.11S
$$

COZ086-089-092>099-240600-
...SOUTHEAST COLORADO...

CITY           SKY/WX    TMP DP  RH WIND       PRES   REMARKS
PUEBLO         FAIR      75  55  49 SE7       30.14R
LA JUNTA       FAIR      74  58  57 SE7       30.13R
LAMAR          FAIR      73  60  63 SE9       30.08S
SPRINGFIELD      N/A     69  60  73 SE8       30.14S
$$




USA.gov is the U.S. government's official web portal to all federal, state and local government web resources and services.